Year,Month,Day,Hour,Minute,Value (Times are PST for temperature in C)
2016,08,17,00,00,16.30
2016,08,17,00,01,16.30
2016,08,17,00,02,16.20
2016,08,17,00,03,16.20
2016,08,17,00,04,16.20
2016,08,17,00,05,16.20
2016,08,17,00,06,16.20
2016,08,17,00,07,16.20
2016,08,17,00,08,16.20
2016,08,17,00,09,16.20
2016,08,17,00,10,16.20
2016,08,17,00,11,16.20
2016,08,17,00,12,16.20
2016,08,17,00,13,16.20
2016,08,17,00,14,16.20
2016,08,17,00,15,16.20
2016,08,17,00,16,16.20
2016,08,17,00,17,16.20
2016,08,17,00,18,16.10
2016,08,17,00,19,16.10
2016,08,17,00,20,16.10
2016,08,17,00,21,16.10
2016,08,17,00,22,16.10
2016,08,17,00,23,16.10
2016,08,17,00,24,16.10
2016,08,17,00,25,16.10
2016,08,17,00,26,16.00
2016,08,17,00,27,16.00
2016,08,17,00,28,16.00
2016,08,17,00,29,16.00
2016,08,17,00,30,16.00
2016,08,17,00,31,16.00
2016,08,17,00,32,16.00
2016,08,17,00,33,16.00
2016,08,17,00,34,16.00
2016,08,17,00,35,16.00
2016,08,17,00,36,16.00
2016,08,17,00,37,16.00
2016,08,17,00,38,15.90
2016,08,17,00,39,15.90
2016,08,17,00,40,15.90
2016,08,17,00,41,15.90
2016,08,17,00,42,15.80
2016,08,17,00,43,15.80
2016,08,17,00,44,15.80
2016,08,17,00,45,15.80
2016,08,17,00,46,15.80
2016,08,17,00,47,15.70
2016,08,17,00,48,15.70
2016,08,17,00,49,15.70
2016,08,17,00,50,15.70
2016,08,17,00,51,15.70
2016,08,17,00,52,15.70
2016,08,17,00,53,15.70
2016,08,17,00,54,15.70
2016,08,17,00,55,15.70
2016,08,17,00,56,15.70
2016,08,17,00,57,15.70
2016,08,17,00,58,15.60
2016,08,17,00,59,15.60
2016,08,17,01,00,15.60
2016,08,17,01,01,15.60
2016,08,17,01,02,15.60
2016,08,17,01,03,15.60
2016,08,17,01,04,15.60
2016,08,17,01,05,15.50
2016,08,17,01,06,15.50
2016,08,17,01,07,15.50
2016,08,17,01,08,15.50
2016,08,17,01,09,15.50
2016,08,17,01,10,15.40
2016,08,17,01,11,15.40
2016,08,17,01,12,15.40
2016,08,17,01,13,15.40
2016,08,17,01,14,15.40
2016,08,17,01,15,15.40
2016,08,17,01,16,15.40
2016,08,17,01,17,15.40
2016,08,17,01,18,15.40
2016,08,17,01,19,15.40
2016,08,17,01,20,15.40
2016,08,17,01,21,15.40
2016,08,17,01,22,15.40
2016,08,17,01,23,15.50
2016,08,17,01,24,15.50
2016,08,17,01,25,15.40
2016,08,17,01,26,15.50
2016,08,17,01,27,15.50
2016,08,17,01,28,15.40
2016,08,17,01,29,15.40
2016,08,17,01,30,15.40
2016,08,17,01,31,15.40
2016,08,17,01,32,15.40
2016,08,17,01,33,15.40
2016,08,17,01,34,15.40
2016,08,17,01,35,15.40
2016,08,17,01,36,15.40
2016,08,17,01,37,15.40
2016,08,17,01,38,15.40
2016,08,17,01,39,15.30
2016,08,17,01,40,15.30
2016,08,17,01,41,15.30
2016,08,17,01,42,15.30
2016,08,17,01,43,15.30
2016,08,17,01,44,15.30
2016,08,17,01,45,15.30
2016,08,17,01,46,15.30
2016,08,17,01,47,15.20
2016,08,17,01,48,15.20
2016,08,17,01,49,15.20
2016,08,17,01,50,15.20
2016,08,17,01,51,15.20
2016,08,17,01,52,15.20
2016,08,17,01,53,15.20
2016,08,17,01,54,15.20
2016,08,17,01,55,15.10
2016,08,17,01,56,15.10
2016,08,17,01,57,15.10
2016,08,17,01,58,15.10
2016,08,17,01,59,15.10
2016,08,17,02,00,15.10
2016,08,17,02,01,15.00
2016,08,17,02,02,15.00
2016,08,17,02,03,15.00
2016,08,17,02,04,15.00
2016,08,17,02,05,15.00
2016,08,17,02,06,14.90
2016,08,17,02,07,14.90
2016,08,17,02,08,14.90
2016,08,17,02,09,14.90
2016,08,17,02,10,14.90
2016,08,17,02,11,14.90
2016,08,17,02,12,14.80
2016,08,17,02,13,14.80
2016,08,17,02,14,14.80
2016,08,17,02,15,14.80
2016,08,17,02,16,14.70
2016,08,17,02,17,14.70
2016,08,17,02,18,14.70
2016,08,17,02,19,14.70
2016,08,17,02,20,14.70
2016,08,17,02,21,14.70
2016,08,17,02,22,14.60
2016,08,17,02,23,14.60
2016,08,17,02,24,14.60
2016,08,17,02,25,14.60
2016,08,17,02,26,14.60
2016,08,17,02,27,14.50
2016,08,17,02,28,14.50
2016,08,17,02,29,14.50
2016,08,17,02,30,14.40
2016,08,17,02,31,14.40
2016,08,17,02,32,14.40
2016,08,17,02,33,14.40
2016,08,17,02,34,14.40
2016,08,17,02,35,14.40
2016,08,17,02,36,14.40
2016,08,17,02,37,14.30
2016,08,17,02,38,14.30
2016,08,17,02,39,14.30
2016,08,17,02,40,14.30
2016,08,17,02,41,14.30
2016,08,17,02,42,14.30
2016,08,17,02,43,14.30
2016,08,17,02,44,14.30
2016,08,17,02,45,14.30
2016,08,17,02,46,14.30
2016,08,17,02,47,14.30
2016,08,17,02,48,14.30
2016,08,17,02,49,14.20
2016,08,17,02,50,14.20
2016,08,17,02,51,14.20
2016,08,17,02,52,14.20
2016,08,17,02,53,14.20
2016,08,17,02,54,14.20
2016,08,17,02,55,14.20
2016,08,17,02,56,14.20
2016,08,17,02,57,14.20
2016,08,17,02,58,14.20
2016,08,17,02,59,14.20
2016,08,17,03,00,14.20
2016,08,17,03,01,14.20
2016,08,17,03,02,14.20
2016,08,17,03,03,14.20
2016,08,17,03,04,14.20
2016,08,17,03,05,14.20
2016,08,17,03,06,14.20
2016,08,17,03,07,14.20
2016,08,17,03,08,14.20
2016,08,17,03,09,14.20
2016,08,17,03,10,14.20
2016,08,17,03,11,14.20
2016,08,17,03,12,14.20
2016,08,17,03,13,14.20
2016,08,17,03,14,14.20
2016,08,17,03,15,14.20
2016,08,17,03,16,14.20
2016,08,17,03,17,14.20
2016,08,17,03,18,14.10
2016,08,17,03,19,14.10
2016,08,17,03,20,14.10
2016,08,17,03,21,14.10
2016,08,17,03,22,14.10
2016,08,17,03,23,14.10
2016,08,17,03,24,14.10
2016,08,17,03,25,14.10
2016,08,17,03,26,14.10
2016,08,17,03,27,14.10
2016,08,17,03,28,14.10
2016,08,17,03,29,14.10
2016,08,17,03,30,14.10
2016,08,17,03,31,14.10
2016,08,17,03,32,14.10
2016,08,17,03,33,14.10
2016,08,17,03,34,14.10
2016,08,17,03,35,14.10
2016,08,17,03,36,14.00
2016,08,17,03,37,14.00
2016,08,17,03,38,14.00
2016,08,17,03,39,14.00
2016,08,17,03,40,13.90
2016,08,17,03,41,13.90
2016,08,17,03,42,13.90
2016,08,17,03,43,13.90
2016,08,17,03,44,13.90
2016,08,17,03,45,13.90
2016,08,17,03,46,13.90
2016,08,17,03,47,13.80
2016,08,17,03,48,13.80
2016,08,17,03,49,13.80
2016,08,17,03,50,13.80
2016,08,17,03,51,13.80
2016,08,17,03,52,13.70
2016,08,17,03,53,13.70
2016,08,17,03,54,13.70
2016,08,17,03,55,13.70
2016,08,17,03,56,13.70
2016,08,17,03,57,13.70
2016,08,17,03,58,13.60
2016,08,17,03,59,13.60
2016,08,17,04,00,13.60
2016,08,17,04,01,13.60
2016,08,17,04,02,13.60
2016,08,17,04,03,13.60
2016,08,17,04,04,13.60
2016,08,17,04,05,13.60
2016,08,17,04,06,13.60
2016,08,17,04,07,13.60
2016,08,17,04,08,13.60
2016,08,17,04,09,13.60
2016,08,17,04,10,13.60
2016,08,17,04,11,13.60
2016,08,17,04,12,13.60
2016,08,17,04,13,13.60
2016,08,17,04,14,13.60
2016,08,17,04,15,13.60
2016,08,17,04,16,13.60
2016,08,17,04,17,13.60
2016,08,17,04,18,13.60
2016,08,17,04,19,13.50
2016,08,17,04,20,13.50
2016,08,17,04,21,13.50
2016,08,17,04,22,13.50
2016,08,17,04,23,13.50
2016,08,17,04,24,13.50
2016,08,17,04,25,13.50
2016,08,17,04,26,13.50
2016,08,17,04,27,13.50
2016,08,17,04,28,13.50
2016,08,17,04,29,13.50
2016,08,17,04,30,13.50
2016,08,17,04,31,13.50
2016,08,17,04,32,13.50
2016,08,17,04,33,13.50
2016,08,17,04,34,13.50
2016,08,17,04,35,13.50
2016,08,17,04,36,13.40
2016,08,17,04,37,13.40
2016,08,17,04,38,13.40
2016,08,17,04,39,13.40
2016,08,17,04,40,13.30
2016,08,17,04,41,13.30
2016,08,17,04,42,13.30
2016,08,17,04,43,13.30
2016,08,17,04,44,13.30
2016,08,17,04,45,13.30
2016,08,17,04,46,13.30
2016,08,17,04,47,13.30
2016,08,17,04,48,13.30
2016,08,17,04,49,13.30
2016,08,17,04,50,13.30
2016,08,17,04,51,13.30
2016,08,17,04,52,13.30
2016,08,17,04,53,13.30
2016,08,17,04,54,13.30
2016,08,17,04,55,13.30
2016,08,17,04,56,13.30
2016,08,17,04,57,13.30
2016,08,17,04,58,13.30
2016,08,17,04,59,13.30
2016,08,17,05,00,13.30
2016,08,17,05,01,13.30
2016,08,17,05,02,13.20
2016,08,17,05,03,13.20
2016,08,17,05,04,13.20
2016,08,17,05,05,13.20
2016,08,17,05,06,13.20
2016,08,17,05,07,13.20
2016,08,17,05,08,13.20
2016,08,17,05,09,13.20
2016,08,17,05,10,13.20
2016,08,17,05,11,13.20
2016,08,17,05,12,13.20
2016,08,17,05,13,13.20
2016,08,17,05,14,13.20
2016,08,17,05,15,13.10
2016,08,17,05,16,13.10
2016,08,17,05,17,13.10
2016,08,17,05,18,13.10
2016,08,17,05,19,13.10
2016,08,17,05,20,13.10
2016,08,17,05,21,13.10
2016,08,17,05,22,13.10
2016,08,17,05,23,13.00
2016,08,17,05,24,13.00
2016,08,17,05,25,13.00
2016,08,17,05,26,13.00
2016,08,17,05,27,13.00
2016,08,17,05,28,13.00
2016,08,17,05,29,13.00
2016,08,17,05,30,13.00
2016,08,17,05,31,13.00
2016,08,17,05,32,13.00
2016,08,17,05,33,12.90
2016,08,17,05,34,12.90
2016,08,17,05,35,12.90
2016,08,17,05,36,12.90
2016,08,17,05,37,12.90
2016,08,17,05,38,12.90
2016,08,17,05,39,12.90
2016,08,17,05,40,12.90
2016,08,17,05,41,12.80
2016,08,17,05,42,12.80
2016,08,17,05,43,12.80
2016,08,17,05,44,12.80
2016,08,17,05,45,12.80
2016,08,17,05,46,12.80
2016,08,17,05,47,12.80
2016,08,17,05,48,12.80
2016,08,17,05,49,12.80
2016,08,17,05,50,12.80
2016,08,17,05,51,12.80
2016,08,17,05,52,12.80
2016,08,17,05,53,12.80
2016,08,17,05,54,12.80
2016,08,17,05,55,12.80
2016,08,17,05,56,12.80
2016,08,17,05,57,12.80
2016,08,17,05,58,12.80
2016,08,17,05,59,12.80
2016,08,17,06,00,12.80
2016,08,17,06,01,12.80
2016,08,17,06,02,12.80
2016,08,17,06,03,12.80
2016,08,17,06,04,12.80
2016,08,17,06,05,12.80
2016,08,17,06,06,12.80
2016,08,17,06,07,12.80
2016,08,17,06,08,12.80
2016,08,17,06,09,12.80
2016,08,17,06,10,12.70
2016,08,17,06,11,12.70
2016,08,17,06,12,12.70
2016,08,17,06,13,12.70
2016,08,17,06,14,12.70
2016,08,17,06,15,12.70
2016,08,17,06,16,12.70
2016,08,17,06,17,12.70
2016,08,17,06,18,12.70
2016,08,17,06,19,12.70
2016,08,17,06,20,12.70
2016,08,17,06,21,12.70
2016,08,17,06,22,12.70
2016,08,17,06,23,12.70
2016,08,17,06,24,12.70
2016,08,17,06,25,12.80
2016,08,17,06,26,12.80
2016,08,17,06,27,12.80
2016,08,17,06,28,12.80
2016,08,17,06,29,12.80
2016,08,17,06,30,12.80
2016,08,17,06,31,12.80
2016,08,17,06,32,12.90
2016,08,17,06,33,12.90
2016,08,17,06,34,12.90
2016,08,17,06,35,12.90
2016,08,17,06,36,12.90
2016,08,17,06,37,12.90
2016,08,17,06,38,12.90
2016,08,17,06,39,12.90
2016,08,17,06,40,12.90
2016,08,17,06,41,12.90
2016,08,17,06,42,12.90
2016,08,17,06,43,12.90
2016,08,17,06,44,12.90
2016,08,17,06,45,12.90
2016,08,17,06,46,12.90
2016,08,17,06,47,12.90
2016,08,17,06,48,12.80
2016,08,17,06,49,12.80
2016,08,17,06,50,12.80
2016,08,17,06,51,12.80
2016,08,17,06,52,12.80
2016,08,17,06,53,12.80
2016,08,17,06,54,12.80
2016,08,17,06,55,12.80
2016,08,17,06,56,12.80
2016,08,17,06,57,12.90
2016,08,17,06,58,12.90
2016,08,17,06,59,12.90
2016,08,17,07,00,12.90
2016,08,17,07,01,13.00
2016,08,17,07,02,13.00
2016,08,17,07,03,13.10
2016,08,17,07,04,13.10
2016,08,17,07,05,13.20
2016,08,17,07,06,13.30
2016,08,17,07,07,13.30
2016,08,17,07,08,13.40
2016,08,17,07,09,13.40
2016,08,17,07,10,13.50
2016,08,17,07,11,13.60
2016,08,17,07,12,13.60
2016,08,17,07,13,13.70
2016,08,17,07,14,13.80
2016,08,17,07,15,13.80
2016,08,17,07,16,13.90
2016,08,17,07,17,13.90
2016,08,17,07,18,14.00
2016,08,17,07,19,14.00
2016,08,17,07,20,14.10
2016,08,17,07,21,14.20
2016,08,17,07,22,14.20
2016,08,17,07,23,14.30
2016,08,17,07,24,14.30
2016,08,17,07,25,14.40
2016,08,17,07,26,14.50
2016,08,17,07,27,14.60
2016,08,17,07,28,14.70
2016,08,17,07,29,14.80
2016,08,17,07,30,14.80
2016,08,17,07,31,14.90
2016,08,17,07,32,15.00
2016,08,17,07,33,15.10
2016,08,17,07,34,15.20
2016,08,17,07,35,15.30
2016,08,17,07,36,15.40
2016,08,17,07,37,15.50
2016,08,17,07,38,15.60
2016,08,17,07,39,15.80
2016,08,17,07,40,15.90
2016,08,17,07,41,16.00
2016,08,17,07,42,16.10
2016,08,17,07,43,16.20
2016,08,17,07,44,16.30
2016,08,17,07,45,16.30
2016,08,17,07,46,16.40
2016,08,17,07,47,16.50
2016,08,17,07,48,16.60
2016,08,17,07,49,16.70
2016,08,17,07,50,16.80
2016,08,17,07,51,16.90
2016,08,17,07,52,17.00
2016,08,17,07,53,17.10
2016,08,17,07,54,17.10
2016,08,17,07,55,17.20
2016,08,17,07,56,17.20
2016,08,17,07,57,17.30
2016,08,17,07,58,17.30
2016,08,17,07,59,17.40
2016,08,17,08,00,17.40
2016,08,17,08,01,17.40
2016,08,17,08,02,17.50
2016,08,17,08,03,17.50
2016,08,17,08,04,17.60
2016,08,17,08,05,17.60
2016,08,17,08,06,17.70
2016,08,17,08,07,17.70
2016,08,17,08,08,17.70
2016,08,17,08,09,17.70
2016,08,17,08,10,17.70
2016,08,17,08,11,17.70
2016,08,17,08,12,17.70
2016,08,17,08,13,17.70
2016,08,17,08,14,17.70
2016,08,17,08,15,17.70
2016,08,17,08,16,17.70
2016,08,17,08,17,17.70
2016,08,17,08,18,17.70
2016,08,17,08,19,17.70
2016,08,17,08,20,17.80
2016,08,17,08,21,17.80
2016,08,17,08,22,17.80
2016,08,17,08,23,17.80
2016,08,17,08,24,17.80
2016,08,17,08,25,17.70
2016,08,17,08,26,17.70
2016,08,17,08,27,17.70
2016,08,17,08,28,17.70
2016,08,17,08,29,17.70
2016,08,17,08,30,17.70
2016,08,17,08,31,17.70
2016,08,17,08,32,17.70
2016,08,17,08,33,17.60
2016,08,17,08,34,17.60
2016,08,17,08,35,17.50
2016,08,17,08,36,17.50
2016,08,17,08,37,17.40
2016,08,17,08,38,17.40
2016,08,17,08,39,17.40
2016,08,17,08,40,17.30
2016,08,17,08,41,17.30
2016,08,17,08,42,17.30
2016,08,17,08,43,17.20
2016,08,17,08,44,17.20
2016,08,17,08,45,17.20
2016,08,17,08,46,17.10
2016,08,17,08,47,17.10
2016,08,17,08,48,17.10
2016,08,17,08,49,17.10
2016,08,17,08,50,17.10
2016,08,17,08,51,17.10
2016,08,17,08,52,17.10
2016,08,17,08,53,17.10
2016,08,17,08,54,17.00
2016,08,17,08,55,17.00
2016,08,17,08,56,17.00
2016,08,17,08,57,17.00
2016,08,17,08,58,17.00
2016,08,17,08,59,17.00
2016,08,17,09,00,17.00
2016,08,17,09,01,17.10
2016,08,17,09,02,17.10
2016,08,17,09,03,17.10
2016,08,17,09,04,17.10
2016,08,17,09,05,17.20
2016,08,17,09,06,17.20
2016,08,17,09,07,17.30
2016,08,17,09,08,17.30
2016,08,17,09,09,17.30
2016,08,17,09,10,17.40
2016,08,17,09,11,17.50
2016,08,17,09,12,17.50
2016,08,17,09,13,17.60
2016,08,17,09,14,17.60
2016,08,17,09,15,17.60
2016,08,17,09,16,17.60
2016,08,17,09,17,17.60
2016,08,17,09,18,17.60
2016,08,17,09,19,17.60
2016,08,17,09,20,17.70
2016,08,17,09,21,17.70
2016,08,17,09,22,17.70
2016,08,17,09,23,17.70
2016,08,17,09,24,17.80
2016,08,17,09,25,17.70
2016,08,17,09,26,17.80
2016,08,17,09,27,17.80
2016,08,17,09,28,17.80
2016,08,17,09,29,17.80
2016,08,17,09,30,17.80
2016,08,17,09,31,17.90
2016,08,17,09,32,17.90
2016,08,17,09,33,18.00
2016,08,17,09,34,18.00
2016,08,17,09,35,18.00
2016,08,17,09,36,18.10
2016,08,17,09,37,18.10
2016,08,17,09,38,18.20
2016,08,17,09,39,18.20
2016,08,17,09,40,18.20
2016,08,17,09,41,18.20
2016,08,17,09,42,18.30
2016,08,17,09,43,18.30
2016,08,17,09,44,18.30
2016,08,17,09,45,18.40
2016,08,17,09,46,18.40
2016,08,17,09,47,18.40
2016,08,17,09,48,18.50
2016,08,17,09,49,18.50
2016,08,17,09,50,18.50
2016,08,17,09,51,18.40
2016,08,17,09,52,18.40
2016,08,17,09,53,18.30
2016,08,17,09,54,18.30
2016,08,17,09,55,18.30
2016,08,17,09,56,18.40
2016,08,17,09,57,18.40
2016,08,17,09,58,18.50
2016,08,17,09,59,18.50
2016,08,17,10,00,18.50
2016,08,17,10,01,18.50
2016,08,17,10,02,18.50
2016,08,17,10,03,18.40
2016,08,17,10,04,18.40
2016,08,17,10,05,18.40
2016,08,17,10,06,18.40
2016,08,17,10,07,18.50
2016,08,17,10,08,18.50
2016,08,17,10,09,18.50
2016,08,17,10,10,18.60
2016,08,17,10,11,18.60
2016,08,17,10,12,18.60
2016,08,17,10,13,18.60
2016,08,17,10,14,18.60
2016,08,17,10,15,18.60
2016,08,17,10,16,18.50
2016,08,17,10,17,18.50
2016,08,17,10,18,18.50
2016,08,17,10,19,18.50
2016,08,17,10,20,18.50
2016,08,17,10,21,18.50
2016,08,17,10,22,18.40
2016,08,17,10,23,18.40
2016,08,17,10,24,18.40
2016,08,17,10,25,18.40
2016,08,17,10,26,18.30
2016,08,17,10,27,18.30
2016,08,17,10,28,18.30
2016,08,17,10,29,18.40
2016,08,17,10,30,18.40
2016,08,17,10,31,18.50
2016,08,17,10,32,18.50
2016,08,17,10,33,18.60
2016,08,17,10,34,18.60
2016,08,17,10,35,18.60
2016,08,17,10,36,18.60
2016,08,17,10,37,18.60
2016,08,17,10,38,18.60
2016,08,17,10,39,18.60
2016,08,17,10,40,18.60
2016,08,17,10,41,18.60
2016,08,17,10,42,18.60
2016,08,17,10,43,18.70
2016,08,17,10,44,18.70
2016,08,17,10,45,18.70
2016,08,17,10,46,18.70
2016,08,17,10,47,18.70
2016,08,17,10,48,18.60
2016,08,17,10,49,18.60
2016,08,17,10,50,18.60
2016,08,17,10,51,18.50
2016,08,17,10,52,18.50
2016,08,17,10,53,18.40
2016,08,17,10,54,18.40
2016,08,17,10,55,18.40
2016,08,17,10,56,18.40
2016,08,17,10,57,18.40
2016,08,17,10,58,18.40
2016,08,17,10,59,18.40
2016,08,17,11,00,18.40
2016,08,17,11,01,18.40
2016,08,17,11,02,18.50
2016,08,17,11,03,18.50
2016,08,17,11,04,18.50
2016,08,17,11,05,18.50
2016,08,17,11,06,18.50
2016,08,17,11,07,18.50
2016,08,17,11,08,18.40
2016,08,17,11,09,18.40
2016,08,17,11,10,18.40
2016,08,17,11,11,18.40
2016,08,17,11,12,18.40
2016,08,17,11,13,18.40
2016,08,17,11,14,18.40
2016,08,17,11,15,18.40
2016,08,17,11,16,18.40
2016,08,17,11,17,18.50
2016,08,17,11,18,18.50
2016,08,17,11,19,18.60
2016,08,17,11,20,18.70
2016,08,17,11,21,18.70
2016,08,17,11,22,18.70
2016,08,17,11,23,18.80
2016,08,17,11,24,18.80
2016,08,17,11,25,18.70
2016,08,17,11,26,18.60
2016,08,17,11,27,18.60
2016,08,17,11,28,18.50
2016,08,17,11,29,18.50
2016,08,17,11,30,18.40
2016,08,17,11,31,18.40
2016,08,17,11,32,18.40
2016,08,17,11,33,18.40
2016,08,17,11,34,18.50
2016,08,17,11,35,18.50
2016,08,17,11,36,18.50
2016,08,17,11,37,18.60
2016,08,17,11,38,18.60
2016,08,17,11,39,18.60
2016,08,17,11,40,18.70
2016,08,17,11,41,18.70
2016,08,17,11,42,18.70
2016,08,17,11,43,18.70
2016,08,17,11,44,18.80
2016,08,17,11,45,18.80
2016,08,17,11,46,18.90
2016,08,17,11,47,18.90
2016,08,17,11,48,18.90
2016,08,17,11,49,19.00
2016,08,17,11,50,19.00
2016,08,17,11,51,19.00
2016,08,17,11,52,19.00
2016,08,17,11,53,19.00
2016,08,17,11,54,19.00
2016,08,17,11,55,19.00
2016,08,17,11,56,19.00
2016,08,17,11,57,19.00
2016,08,17,11,58,19.10
2016,08,17,11,59,19.10
2016,08,17,12,00,19.10
2016,08,17,12,01,19.10
2016,08,17,12,02,19.10
2016,08,17,12,03,19.10
2016,08,17,12,04,19.10
2016,08,17,12,05,19.10
2016,08,17,12,06,19.10
2016,08,17,12,07,19.10
2016,08,17,12,08,19.10
2016,08,17,12,09,19.10
2016,08,17,12,10,19.10
2016,08,17,12,11,19.10
2016,08,17,12,12,19.20
2016,08,17,12,13,19.20
2016,08,17,12,14,19.20
2016,08,17,12,15,19.20
2016,08,17,12,16,19.20
2016,08,17,12,17,19.30
2016,08,17,12,18,19.30
2016,08,17,12,19,19.30
2016,08,17,12,20,19.30
2016,08,17,12,21,19.30
2016,08,17,12,22,19.30
2016,08,17,12,23,19.40
2016,08,17,12,24,19.40
2016,08,17,12,25,19.40
2016,08,17,12,26,19.50
2016,08,17,12,27,19.50
2016,08,17,12,28,19.60
2016,08,17,12,29,19.60
2016,08,17,12,30,19.70
2016,08,17,12,31,19.70
2016,08,17,12,32,19.70
2016,08,17,12,33,19.70
2016,08,17,12,34,19.70
2016,08,17,12,35,19.70
2016,08,17,12,36,19.80
2016,08,17,12,37,19.80
2016,08,17,12,38,19.80
2016,08,17,12,39,19.90
2016,08,17,12,40,19.90
2016,08,17,12,41,20.00
2016,08,17,12,42,20.00
2016,08,17,12,43,20.10
2016,08,17,12,44,20.10
2016,08,17,12,45,20.20
2016,08,17,12,46,20.20
2016,08,17,12,47,20.20
2016,08,17,12,48,20.20
2016,08,17,12,49,20.20
2016,08,17,12,50,20.20
2016,08,17,12,51,20.30
2016,08,17,12,52,20.30
2016,08,17,12,53,20.40
2016,08,17,12,54,20.40
2016,08,17,12,55,20.40
2016,08,17,12,56,20.40
2016,08,17,12,57,20.40
2016,08,17,12,58,20.40
2016,08,17,12,59,20.40
2016,08,17,13,00,20.50
2016,08,17,13,01,20.50
2016,08,17,13,02,20.40
2016,08,17,13,03,20.40
2016,08,17,13,04,20.40
2016,08,17,13,05,20.40
2016,08,17,13,06,20.50
2016,08,17,13,07,20.60
2016,08,17,13,08,20.60
2016,08,17,13,09,20.70
2016,08,17,13,10,20.70
2016,08,17,13,11,20.80
2016,08,17,13,12,20.80
2016,08,17,13,13,20.90
2016,08,17,13,14,20.90
2016,08,17,13,15,20.90
2016,08,17,13,16,20.90
2016,08,17,13,17,20.80
2016,08,17,13,18,20.80
2016,08,17,13,19,20.70
2016,08,17,13,20,20.70
2016,08,17,13,21,20.70
2016,08,17,13,22,20.70
2016,08,17,13,23,20.70
2016,08,17,13,24,20.70
2016,08,17,13,25,20.80
2016,08,17,13,26,20.80
2016,08,17,13,27,20.80
2016,08,17,13,28,20.80
2016,08,17,13,29,20.80
2016,08,17,13,30,20.90
2016,08,17,13,31,20.90
2016,08,17,13,32,20.90
2016,08,17,13,33,21.00
2016,08,17,13,34,21.10
2016,08,17,13,35,21.20
2016,08,17,13,36,21.20
2016,08,17,13,37,21.30
2016,08,17,13,38,21.30
2016,08,17,13,39,21.30
2016,08,17,13,40,21.30
2016,08,17,13,41,21.30
2016,08,17,13,42,21.30
2016,08,17,13,43,21.30
2016,08,17,13,44,21.20
2016,08,17,13,45,21.20
2016,08,17,13,46,21.20
2016,08,17,13,47,21.20
2016,08,17,13,48,21.20
2016,08,17,13,49,21.20
2016,08,17,13,50,21.20
2016,08,17,13,51,21.20
2016,08,17,13,52,21.30
2016,08,17,13,53,21.40
2016,08,17,13,54,21.40
2016,08,17,13,55,21.50
2016,08,17,13,56,21.60
2016,08,17,13,57,21.60
2016,08,17,13,58,21.70
2016,08,17,13,59,21.70
2016,08,17,14,00,21.70
2016,08,17,14,01,21.70
2016,08,17,14,02,21.70
2016,08,17,14,03,21.70
2016,08,17,14,04,21.70
2016,08,17,14,05,21.70
2016,08,17,14,06,21.80
2016,08,17,14,07,21.80
2016,08,17,14,08,21.80
2016,08,17,14,09,21.80
2016,08,17,14,10,21.80
2016,08,17,14,11,21.70
2016,08,17,14,12,21.70
2016,08,17,14,13,21.70
2016,08,17,14,14,21.80
2016,08,17,14,15,21.80
2016,08,17,14,16,21.90
2016,08,17,14,17,21.90
2016,08,17,14,18,22.00
2016,08,17,14,19,22.10
2016,08,17,14,20,22.10
2016,08,17,14,21,22.20
2016,08,17,14,22,22.20
2016,08,17,14,23,22.20
2016,08,17,14,24,22.20
2016,08,17,14,25,22.20
2016,08,17,14,26,22.30
2016,08,17,14,27,22.30
2016,08,17,14,28,22.40
2016,08,17,14,29,22.40
2016,08,17,14,30,22.40
2016,08,17,14,31,22.50
2016,08,17,14,32,22.60
2016,08,17,14,33,22.60
2016,08,17,14,34,22.70
2016,08,17,14,35,22.70
2016,08,17,14,36,22.80
2016,08,17,14,37,22.80
2016,08,17,14,38,22.80
2016,08,17,14,39,22.90
2016,08,17,14,40,23.00
2016,08,17,14,41,23.10
2016,08,17,14,42,23.20
2016,08,17,14,43,23.30
2016,08,17,14,44,23.30
2016,08,17,14,45,23.20
2016,08,17,14,46,23.20
2016,08,17,14,47,23.20
2016,08,17,14,48,23.20
2016,08,17,14,49,23.30
2016,08,17,14,50,23.30
2016,08,17,14,51,23.30
2016,08,17,14,52,23.30
2016,08,17,14,53,23.30
2016,08,17,14,54,23.30
2016,08,17,14,55,23.20
2016,08,17,14,56,23.20
2016,08,17,14,57,23.10
2016,08,17,14,58,23.10
2016,08,17,14,59,23.10
2016,08,17,15,00,23.00
2016,08,17,15,01,23.00
2016,08,17,15,02,23.00
2016,08,17,15,03,23.00
2016,08,17,15,04,23.10
2016,08,17,15,05,23.10
2016,08,17,15,06,23.20
2016,08,17,15,07,23.20
2016,08,17,15,08,23.20
2016,08,17,15,09,23.30
2016,08,17,15,10,23.30
2016,08,17,15,11,23.30
2016,08,17,15,12,23.40
2016,08,17,15,13,23.40
2016,08,17,15,14,23.40
2016,08,17,15,15,23.40
2016,08,17,15,16,23.30
2016,08,17,15,17,23.30
2016,08,17,15,18,23.40
2016,08,17,15,19,23.50
2016,08,17,15,20,23.50
2016,08,17,15,21,23.60
2016,08,17,15,22,23.70
2016,08,17,15,23,23.70
2016,08,17,15,24,23.80
2016,08,17,15,25,23.80
2016,08,17,15,26,23.80
2016,08,17,15,27,23.80
2016,08,17,15,28,23.90
2016,08,17,15,29,24.00
2016,08,17,15,30,24.10
2016,08,17,15,31,24.10
2016,08,17,15,32,24.10
2016,08,17,15,33,24.00
2016,08,17,15,34,24.00
2016,08,17,15,35,24.00
2016,08,17,15,36,24.00
2016,08,17,15,37,24.10
2016,08,17,15,38,24.10
2016,08,17,15,39,24.10
2016,08,17,15,40,24.10
2016,08,17,15,41,24.10
2016,08,17,15,42,24.20
2016,08,17,15,43,24.20
2016,08,17,15,44,24.30
2016,08,17,15,45,24.40
2016,08,17,15,46,24.50
2016,08,17,15,47,24.50
2016,08,17,15,48,24.50
2016,08,17,15,49,24.40
2016,08,17,15,50,24.40
2016,08,17,15,51,24.30
2016,08,17,15,52,24.30
2016,08,17,15,53,24.30
2016,08,17,15,54,24.30
2016,08,17,15,55,24.20
2016,08,17,15,56,24.20
2016,08,17,15,57,24.20
2016,08,17,15,58,24.20
2016,08,17,15,59,24.10
2016,08,17,16,00,24.10
2016,08,17,16,01,24.10
2016,08,17,16,02,24.10
2016,08,17,16,03,24.20
2016,08,17,16,04,24.20
2016,08,17,16,05,24.30
2016,08,17,16,06,24.30
2016,08,17,16,07,24.40
2016,08,17,16,08,24.40
2016,08,17,16,09,24.50
2016,08,17,16,10,24.60
2016,08,17,16,11,24.60
2016,08,17,16,12,24.70
2016,08,17,16,13,24.80
2016,08,17,16,14,24.80
2016,08,17,16,15,24.80
2016,08,17,16,16,24.80
2016,08,17,16,17,24.80
2016,08,17,16,18,24.70
2016,08,17,16,19,24.60
2016,08,17,16,20,24.50
2016,08,17,16,21,24.40
2016,08,17,16,22,24.30
2016,08,17,16,23,24.30
2016,08,17,16,24,24.30
2016,08,17,16,25,24.20
2016,08,17,16,26,24.20
2016,08,17,16,27,24.20
2016,08,17,16,28,24.20
2016,08,17,16,29,24.20
2016,08,17,16,30,24.20
2016,08,17,16,31,24.10
2016,08,17,16,32,24.00
2016,08,17,16,33,23.90
2016,08,17,16,34,23.80
2016,08,17,16,35,23.70
2016,08,17,16,36,23.60
2016,08,17,16,37,23.40
2016,08,17,16,38,23.30
2016,08,17,16,39,23.20
2016,08,17,16,40,23.00
2016,08,17,16,41,22.90
2016,08,17,16,42,22.80
2016,08,17,16,43,22.70
2016,08,17,16,44,22.60
2016,08,17,16,45,22.60
2016,08,17,16,46,22.50
2016,08,17,16,47,22.50
2016,08,17,16,48,22.40
2016,08,17,16,49,22.50
2016,08,17,16,50,22.40
2016,08,17,16,51,22.40
2016,08,17,16,52,22.40
2016,08,17,16,53,22.40
2016,08,17,16,54,22.40
2016,08,17,16,55,22.40
2016,08,17,16,56,22.40
2016,08,17,16,57,22.40
2016,08,17,16,58,22.40
2016,08,17,16,59,22.40
2016,08,17,17,00,22.40
2016,08,17,17,01,22.40
2016,08,17,17,02,22.40
2016,08,17,17,03,22.40
2016,08,17,17,04,22.40
2016,08,17,17,05,22.40
2016,08,17,17,06,22.30
2016,08,17,17,07,22.30
2016,08,17,17,08,22.40
2016,08,17,17,09,22.40
2016,08,17,17,10,22.40
2016,08,17,17,11,22.40
2016,08,17,17,12,22.30
2016,08,17,17,13,22.30
2016,08,17,17,14,22.20
2016,08,17,17,15,22.20
2016,08,17,17,16,22.20
2016,08,17,17,17,22.20
2016,08,17,17,18,22.20
2016,08,17,17,19,22.30